Lapse_Rate
5.8 6.3 6.5 6.5 6.5 6.7 6.6 6.6 6.8 6.8 6.6 6.6 6.4 6.3 6.8 6.7 6.6 6.6 6.5 6.5 6.4 6.5 6.5 6.4 6.5 6.7 6.8 7.0 7.0 7.2 7.1 7.0 6.6 6.7 6.7 6.6 6.7 6.8 7.2 7.3 7.4 7.3 7.5 7.3 7.4 7.4 7.5
6.0 5.9 6.3 6.5 6.5 6.2 6.3 6.6 6.8 6.7 6.7 6.8 6.7 6.5 6.6 6.8 6.8 6.7 6.7 6.6 6.5 6.5 6.4 6.6 6.5 6.6 6.8 6.9 7.0 7.2 7.3 7.2 7.0 6.9 6.6 6.7 7.0 7.2 7.2 7.5 7.2 7.5 7.6 7.6 7.6 7.7 7.8
6.0 5.9 6.0 6.1 6.3 6.6 6.4 6.4 6.6 6.7 6.5 6.6 6.9 6.8 6.8 6.7 6.8 6.8 6.8 6.7 6.7 6.6 6.4 6.6 6.6 6.7 6.9 6.9 7.0 6.9 7.1 7.0 7.2 7.0 6.6 6.9 7.3 7.2 7.1 7.3 7.1 7.3 7.3 7.7 8.2 8.1 8.1
5.8 6.2 6.1 6.0 6.0 6.2 6.4 6.5 6.6 6.3 6.5 6.5 6.5 6.9 6.9 6.9 6.8 6.9 6.8 6.8 6.7 6.7 6.5 6.4 6.5 6.7 7.3 6.7 6.9 7.6 6.9 7.4 7.0 7.1 7.2 7.3 6.9 6.9 6.6 7.0 7.2 6.9 7.1 7.4 7.9 7.6 8.0
5.6 5.7 6.0 6.3 6.2 6.1 6.2 5.9 6.1 6.2 6.1 6.4 6.4 6.4 6.7 6.8 7.0 6.8 6.9 6.9 6.8 6.6 6.8 6.4 6.4 6.5 7.4 7.2 7.1 7.0 7.5 7.3 7.1 7.0 6.9 6.8 6.8 7.0 6.6 6.6 7.1 6.9 7.1 7.1 7.7 7.7 7.5
5.4 5.5 5.8 6.1 6.2 6.3 6.1 6.1 6.0 6.1 6.4 6.5 6.6 6.4 6.4 6.5 6.7 7.0 6.9 7.0 6.7 6.7 6.8 6.5 6.5 6.4 7.1 7.0 7.1 7.1 7.0 7.4 7.0 6.7 6.8 7.0 6.6 7.2 7.2 6.5 7.0 7.1 6.8 7.1 7.3 7.8 7.5
5.2 5.4 5.5 5.7 6.0 6.2 6.2 6.3 6.2 5.9 6.3 6.3 6.2 6.5 6.5 6.2 6.6 6.7 6.8 6.7 6.7 6.5 6.8 6.8 6.7 6.9 7.0 6.8 7.1 7.2 6.9 7.1 6.8 6.6 7.0 6.8 6.5 7.5 7.4 6.9 7.0 7.0 7.0 7.0 7.5 7.9 7.4
4.9 5.1 5.2 5.3 5.5 5.6 5.8 6.1 6.3 6.3 6.2 6.4 6.3 6.4 6.5 6.5 6.2 6.5 6.6 6.7 6.5 6.5 7.0 7.0 7.0 7.0 7.3 6.9 6.7 7.6 7.1 6.9 7.0 7.0 6.7 6.5 6.9 7.9 7.1 7.0 6.8 7.0 7.1 7.3 7.4 7.6 7.3
4.5 4.5 4.7 4.9 5.0 5.1 5.3 5.4 5.8 6.1 5.8 6.1 6.3 6.3 6.4 6.1 6.4 6.3 6.7 6.7 6.3 6.2 6.4 7.1 7.2 7.1 7.6 6.9 7.0 7.5 7.2 7.0 6.9 7.0 6.9 6.8 7.6 7.4 7.1 7.1 7.0 7.0 7.4 7.5 7.4 7.5 7.8
4.3 4.2 4.1 4.2 4.5 4.6 4.6 4.8 5.0 5.4 6.0 5.5 6.2 6.1 5.9 6.3 6.4 6.5 6.6 6.7 5.9 5.7 5.8 6.5 7.4 7.2 7.6 7.6 6.5 7.2 7.5 7.0 6.6 7.0 6.8 6.7 7.6 7.7 7.7 7.2 7.2 7.1 7.5 7.5 7.6 7.4 7.2
4.2 4.0 3.8 3.8 3.9 4.0 4.2 4.3 4.4 4.6 5.4 5.9 5.7 5.5 5.6 4.8 6.6 6.7 7.0 6.6 6.1 5.7 5.3 6.9 7.3 7.7 7.7 7.8 7.7 7.5 7.8 7.1 7.2 6.8 6.7 7.5 7.5 7.2 7.2 7.5 7.4 7.5 7.5 7.5 7.5 7.4 7.4
5.2 4.5 4.1 3.8 3.7 3.7 3.8 4.0 4.2 4.2 4.4 5.0 5.4 5.8 6.0 4.9 4.9 6.3 6.2 6.1 5.9 5.6 5.3 7.0 7.1 7.5 7.7 7.7 7.7 7.6 7.8 7.5 7.1 6.7 6.4 7.3 7.2 7.3 7.3 7.4 7.5 7.4 7.5 7.4 7.5 7.5 6.7
6.6 6.5 6.1 5.0 4.2 3.9 3.8 3.9 3.9 4.1 4.1 4.5 5.2 5.6 5.7 5.2 5.4 5.5 5.7 5.0 5.5 5.8 6.4 6.9 7.2 7.4 7.5 7.9 7.8 7.8 7.6 7.5 7.1 6.6 6.5 6.9 7.0 7.7 7.3 7.1 7.4 7.4 7.5 7.2 6.8 6.6 6.2
6.6 6.7 6.8 6.9 6.5 4.8 4.0 3.9 3.9 3.8 4.0 4.2 4.8 5.2 6.0 5.5 4.6 4.9 5.0 4.8 5.3 5.4 6.2 7.0 7.5 7.5 7.6 7.9 7.9 8.0 7.3 7.3 7.0 7.1 7.0 6.7 6.8 7.7 7.8 7.3 7.8 7.6 7.7 7.3 6.4 5.9 6.7
6.4 6.8 7.0 7.0 6.8 6.7 5.8 4.1 3.8 3.6 3.7 3.9 4.4 4.8 5.1 5.3 4.6 4.6 4.5 4.6 4.9 5.0 5.9 6.4 7.4 7.6 7.3 7.8 8.0 7.8 7.7 8.1 7.9 7.3 6.9 7.1 7.0 7.7 7.9 8.1 7.6 7.6 7.7 8.2 8.0 7.9 6.7
6.3 6.6 6.8 7.2 7.2 7.1 6.8 5.9 4.0 3.5 3.5 3.8 4.2 4.4 5.2 5.1 5.4 5.6 4.5 4.4 4.6 5.1 5.3 6.3 7.0 7.6 8.0 8.0 7.6 7.4 7.4 7.6 8.0 7.5 7.2 7.2 7.1 7.6 7.9 8.2 8.0 7.9 8.3 7.7 7.4 6.5 6.3
6.5 6.7 6.8 7.0 7.3 7.4 7.3 7.0 6.0 4.1 3.5 3.6 3.9 3.9 5.6 5.6 5.8 5.5 4.6 4.3 4.5 4.7 5.4 6.1 7.2 8.2 8.2 8.1 8.0 7.6 7.8 7.8 7.9 8.1 7.8 7.4 7.2 7.8 7.8 7.6 8.0 7.8 8.0 7.9 8.0 7.5 6.1
6.7 6.9 7.0 7.2 7.3 7.5 7.6 7.3 7.1 5.9 4.4 3.6 3.6 3.1 5.5 5.2 5.8 5.9 5.7 4.8 5.2 4.8 5.7 6.3 7.4 8.3 8.4 8.1 8.2 7.8 7.8 7.9 8.2 8.3 8.1 7.9 7.3 7.0 7.9 7.9 8.0 8.2 8.4 8.3 7.9 7.6 7.8
6.9 7.0 7.2 7.4 7.5 7.6 7.6 7.5 7.3 7.0 5.8 4.5 3.4 3.6 4.2 5.4 6.6 5.5 5.1 5.9 5.5 4.8 5.3 6.3 7.0 7.7 8.0 7.8 7.9 7.9 8.0 8.1 8.2 8.2 8.3 7.8 7.1 7.2 7.5 7.8 8.2 8.1 8.1 8.2 8.3 8.4 7.6
6.1 6.9 7.3 7.5 7.6 7.7 7.8 7.6 7.5 7.2 6.7 5.4 3.7 3.3 4.3 4.7 6.1 5.7 5.3 5.7 4.7 5.3 5.1 6.1 6.7 7.3 7.6 7.7 8.1 7.9 7.8 8.2 8.4 8.3 8.3 8.0 7.8 7.6 7.4 8.1 8.3 8.2 8.4 8.3 8.3 7.8 7.8
6.1 6.7 7.6 7.9 7.9 7.8 7.7 7.8 7.6 7.4 7.2 6.4 4.4 3.4 3.9 5.6 6.3 6.1 6.2 6.4 4.6 4.9 4.5 5.8 6.7 7.2 7.3 7.2 7.3 7.5 8.1 8.3 8.3 8.2 8.1 8.0 7.7 7.8 7.8 8.0 8.1 8.4 8.1 8.1 8.2 7.9 7.6
6.2 6.2 7.2 7.7 7.8 7.8 7.7 7.7 7.4 7.5 7.4 7.0 4.8 3.6 4.3 5.6 6.7 6.1 6.1 5.6 4.7 4.5 4.9 5.3 5.8 6.5 7.1 6.7 7.4 7.7 8.1 8.4 8.8 8.5 8.1 7.9 8.1 8.1 8.1 8.2 8.1 8.0 8.0 7.8 7.9 7.9 7.9
5.6 6.2 7.0 7.0 7.3 7.5 7.7 7.6 7.5 7.4 7.5 7.3 5.2 4.1 5.3 6.6 5.9 6.2 5.7 6.3 5.5 5.8 5.0 6.1 6.5 6.0 6.9 7.3 7.5 7.9 8.3 8.5 8.5 8.6 8.6 8.7 8.5 8.3 8.0 7.9 8.0 7.3 7.3 7.6 7.6 7.6 7.7
5.6 5.7 6.2 7.0 7.1 7.1 7.4 7.5 7.6 7.5 7.8 7.1 4.9 4.7 5.7 5.5 6.1 5.4 5.1 5.8 6.2 5.0 5.4 5.5 6.1 6.6 7.7 7.9 7.9 8.0 8.2 8.0 8.1 8.2 8.5 8.4 8.3 8.1 7.6 7.2 6.2 6.9 7.5 7.3 7.1 7.2 7.5
5.8 5.5 5.4 5.6 6.8 7.0 7.0 7.3 7.3 7.3 7.3 6.7 5.3 5.0 5.9 5.4 6.6 6.0 6.6 6.0 4.7 5.3 5.0 5.5 6.1 7.0 7.3 7.4 7.9 8.1 8.0 7.6 7.8 7.9 7.6 7.8 7.8 7.7 7.6 7.2 7.3 6.9 6.8 6.9 7.1 7.2 7.2
5.8 5.4 5.1 5.7 5.7 6.6 6.5 6.7 6.8 6.7 6.9 6.2 5.1 5.4 5.8 5.4 5.4 6.2 6.0 4.7 4.9 5.1 5.1 5.2 6.1 6.9 7.5 7.8 7.7 7.8 7.2 7.1 7.2 6.9 7.8 7.9 7.8 7.5 7.2 6.6 5.6 6.7 7.2 7.3 7.3 6.6 7.1
5.9 5.3 4.7 5.2 5.5 6.1 6.1 6.3 6.3 6.3 6.3 6.2 5.3 5.8 5.7 5.2 6.1 6.2 5.9 5.3 5.4 5.1 5.4 5.6 6.2 6.6 6.6 6.6 6.6 7.0 6.6 6.8 6.4 6.9 7.5 7.5 7.3 7.2 7.1 6.8 6.1 6.3 7.0 7.1 6.7 6.4 7.3
5.5 5.4 4.7 4.9 5.6 5.8 5.8 5.8 6.1 6.4 6.4 6.0 5.8 5.8 6.1 5.3 6.5 5.9 5.3 5.4 4.9 5.3 5.6 5.9 6.2 5.9 6.4 6.1 6.3 6.4 6.3 6.2 6.3 6.7 7.0 7.3 7.3 6.9 6.7 6.6 5.3 6.5 7.0 7.0 7.2 6.9 6.9
5.1 4.6 4.6 5.2 5.2 5.3 5.6 6.0 5.3 6.1 6.2 5.3 5.5 6.1 6.0 6.3 6.8 6.0 5.8 5.4 5.3 6.1 5.6 5.7 5.7 5.8 5.8 5.7 5.8 6.4 6.5 5.9 6.0 5.7 6.7 6.8 7.0 7.3 7.3 7.4 7.2 7.1 6.7 6.5 6.4 6.5 6.5
Wind_Speed
8 7 8 10 10 10 10 11 13 18 17 17 17 18 15 13 13 13 14 16 19 23 24 23 22 26 7 4 8 4 14 9 3 3 5 2 3 1 3 5 6 5 5 9 10 9 4
11 10 10 9 9 11 12 11 13 12 19 18 19 19 17 17 15 14 15 16 20 22 24 19 20 18 3 4 4 10 9 6 6 5 3 3 5 6 5 4 2 4 7 9 8 9 4
13 12 10 9 10 11 11 12 12 14 13 19 20 19 18 18 18 17 16 16 20 23 23 15 14 3 2 13 2 6 7 5 6 5 2 3 4 4 4 8 2 6 7 9 6 4 6
13 14 13 13 11 11 13 13 12 13 16 16 20 20 19 18 18 18 18 17 21 24 23 13 4 1 7 8 5 7 6 7 8 7 6 7 5 1 2 3 8 5 3 4 5 6 7
11 14 16 13 13 11 12 13 15 13 15 16 21 20 19 19 18 19 18 20 24 27 18 11 2 3 9 12 4 10 13 10 10 5 5 3 4 1 5 2 5 3 3 5 9 8 6
13 14 16 16 15 13 12 12 13 14 15 15 17 21 20 17 19 17 17 21 26 11 4 4 2 2 5 6 5 3 8 9 6 3 2 2 3 1 2 3 4 4 4 6 7 7 3
13 15 16 18 17 16 15 13 13 14 15 14 16 21 20 17 16 13 7 5 2 3 2 9 6 5 3 5 4 2 4 5 2 3 5 4 2 8 11 10 11 7 6 10 10 9 3
14 14 17 18 17 18 18 17 16 14 14 15 16 19 21 18 13 10 1 4 2 2 6 10 15 13 18 3 5 7 1 5 5 7 2 5 11 15 6 8 10 11 8 7 7 9 2
14 15 17 17 18 20 20 18 17 17 14 14 15 18 22 18 10 5 5 9 2 11 2 6 8 8 8 10 9 12 5 5 5 6 6 10 9 5 7 12 10 6 5 5 9 8 2
15 15 16 18 19 21 21 19 18 17 15 14 13 16 20 16 6 5 6 15 15 4 2 6 7 9 9 9 7 10 12 9 5 10 6 9 12 18 17 14 8 14 6 6 4 6 4
17 16 16 17 18 19 17 16 18 18 17 14 14 14 17 28 5 8 6 18 6 3 3 6 7 5 8 13 9 7 7 5 18 7 7 10 5 4 9 11 9 9 4 4 2 2 6
19 20 19 17 17 19 18 17 18 18 19 16 15 13 14 13 7 5 17 7 4 4 8 6 7 9 8 5 7 4 4 5 7 6 6 16 5 3 4 6 7 3 1 4 4 3 3
21 20 20 21 20 18 17 17 17 18 18 17 16 13 10 18 10 24 1 4 7 8 6 6 7 8 9 10 6 7 7 7 8 6 15 14 20 19 8 8 4 3 5 3 3 1 6
24 24 24 24 23 21 19 17 17 18 17 17 18 14 10 16 17 14 4 6 12 15 21 5 8 6 13 6 6 6 7 6 11 4 2 9 7 18 11 20 8 6 8 5 6 4 5
26 27 27 25 24 24 23 21 18 17 19 14 13 6 6 11 25 5 6 17 14 18 25 6 5 6 6 5 7 6 10 8 10 14 8 6 7 5 7 11 16 5 5 7 2 2 3
28 28 28 27 26 25 25 23 20 17 15 10 1 5 13 14 22 9 13 24 24 26 9 24 9 7 11 12 9 12 12 8 7 15 5 4 5 4 4 6 6 9 5 2 1 3 5
26 31 30 30 29 28 27 26 24 19 14 11 3 5 4 22 13 9 16 15 26 29 17 23 28 7 7 9 13 9 11 3 14 16 18 5 1 6 3 4 9 3 4 2 4 5 5
26 27 31 32 32 31 29 28 27 21 16 7 4 10 4 11 16 7 23 31 39 22 26 14 4 22 8 10 11 12 13 9 13 9 17 11 4 6 10 6 2 4 11 8 4 7 4
27 28 26 29 32 32 32 30 29 25 21 3 5 11 6 9 16 13 22 38 26 26 24 17 13 8 7 8 4 10 11 10 9 14 12 11 6 3 7 5 2 5 6 5 2 3 6
24 26 22 26 29 32 33 32 31 29 25 8 4 5 7 10 17 18 27 27 29 21 23 17 5 5 5 10 6 6 10 1 6 10 8 10 6 8 11 5 4 5 5 3 4 2 3
24 23 24 26 29 33 32 31 32 31 28 9 6 6 6 6 19 26 36 22 34 22 25 23 20 20 13 6 7 7 4 4 4 4 4 7 8 6 6 4 0 4 6 6 6 6 7
24 23 21 21 25 26 29 30 32 34 31 11 5 5 8 13 12 31 35 31 35 32 19 27 21 33 17 8 7 7 6 4 5 1 4 1 4 5 3 5 3 8 10 5 8 10 9
24 23 22 20 23 22 27 29 32 36 28 8 8 7 8 9 23 25 30 34 37 32 34 32 21 2 23 19 5 7 7 5 5 6 4 6 5 3 5 5 6 15 8 14 13 6 7
25 24 22 21 21 22 21 25 29 35 31 9 6 5 7 19 20 26 33 37 37 31 32 15 24 9 3 7 7 7 6 6 7 2 5 5 5 3 2 5 8 3 7 7 5 6 6
26 25 25 24 23 23 23 20 34 32 34 13 8 8 11 18 23 33 40 38 21 10 22 22 14 25 6 6 5 4 3 1 8 8 6 5 4 3 3 5 9 12 5 3 4 11 7
27 27 27 25 23 23 22 27 31 37 34 16 12 13 7 14 20 37 34 29 16 15 12 24 1 12 11 3 4 6 6 3 6 2 12 7 6 4 4 3 15 4 6 6 3 15 3
28 27 25 24 23 21 29 22 25 27 31 16 8 22 11 12 4 22 20 22 18 17 11 5 11 3 5 4 10 6 6 7 9 9 5 5 1 15 9 6 12 7 7 5 7 6 5
24 23 21 19 19 24 14 23 30 35 36 23 17 15 18 5 3 3 2 17 13 12 13 7 6 2 3 9 8 5 3 8 5 6 11 10 8 8 4 6 22 6 3 13 3 4 5
17 18 15 15 22 12 18 25 39 46 47 36 9 14 10 4 2 7 7 6 2 5 14 3 11 7 5 4 2 4 2 1 4 12 3 12 9 7 9 7 2 4 6 6 6 3 1
Wind_Direction
313 303 310 314 330 320 335 330 324 270 266 265 269 270 269 269 278 291 303 310 317 322 324 332 342 337 4 354 258 193 156 148 176 211 230 227 296 224 254 282 336 198 305 321 293 298 268
305 300 305 291 309 320 316 323 326 318 270 270 269 269 271 271 272 279 292 304 309 314 317 331 340 338 35 299 272 173 158 144 218 217 222 167 246 264 265 307 356 294 301 291 285 300 289
301 297 298 288 293 300 312 314 318 320 298 270 272 270 270 271 272 275 282 294 301 305 307 323 328 357 295 240 293 186 174 218 191 199 231 230 210 59 324 326 327 292 327 317 271 277 283
302 296 289 290 282 292 299 301 307 316 316 276 263 268 269 270 270 275 281 290 294 296 298 309 309 252 244 264 214 214 222 283 258 211 195 184 108 117 222 306 332 307 20 345 315 336 282
299 304 287 279 284 273 287 297 300 308 306 305 258 260 265 268 271 271 280 290 289 287 294 278 199 208 265 300 246 224 191 215 242 258 222 131 82 185 350 43 345 345 247 246 300 191 257
289 299 304 289 278 280 276 290 296 301 307 305 276 254 257 262 269 271 283 289 278 312 280 183 260 319 264 252 244 236 170 187 203 237 338 148 64 182 2 79 252 255 249 273 257 297 219
273 288 294 297 291 279 274 275 283 292 297 309 303 255 250 248 260 265 313 319 292 286 210 200 191 237 274 293 326 219 206 157 157 123 174 257 166 236 231 211 241 260 263 255 272 270 293
270 272 288 287 291 284 271 277 281 275 285 297 302 275 246 242 240 234 201 235 267 183 290 231 251 243 270 325 313 298 29 154 146 224 107 311 247 242 247 257 248 249 249 277 285 285 322
267 267 273 278 284 285 277 270 274 273 268 280 291 303 237 231 209 164 206 232 43 22 292 274 213 219 228 159 221 247 180 178 172 203 194 223 236 290 259 265 279 250 249 267 273 307 268
278 279 271 272 277 284 275 265 268 264 263 261 281 287 252 191 149 151 223 241 264 36 318 268 217 237 193 186 265 205 192 165 201 214 169 246 243 239 256 256 241 265 225 255 272 22 291
276 270 275 274 271 270 270 268 268 262 259 256 266 276 289 174 151 194 202 216 151 96 226 225 213 202 173 176 149 235 172 153 221 189 138 229 251 218 238 236 195 235 227 242 249 42 332
271 269 265 267 274 270 258 260 266 263 251 247 251 261 304 216 219 228 218 148 118 135 221 262 187 173 123 189 176 157 153 99 216 201 244 240 301 250 231 301 211 179 358 13 44 89 323
263 264 266 264 261 265 261 257 259 266 254 247 252 256 250 262 218 224 85 140 190 193 204 212 193 175 160 175 187 157 160 165 176 152 226 247 250 262 254 283 267 127 83 317 352 22 227
264 261 261 261 257 255 251 254 260 260 254 259 259 267 241 251 243 202 135 178 211 177 210 225 171 172 183 142 205 158 143 190 212 172 156 198 285 213 205 205 197 181 154 171 195 204 233
264 262 259 257 253 251 247 245 252 259 256 262 273 269 251 243 248 179 162 209 197 192 207 229 161 146 204 188 142 136 196 203 188 191 188 195 251 240 196 200 172 193 189 188 129 336 78
266 260 256 255 252 248 244 243 240 244 248 247 235 270 251 233 242 192 193 220 202 219 166 213 215 173 177 181 164 173 179 206 209 194 157 244 295 250 293 116 188 160 159 97 48 219 235
278 261 255 251 247 245 242 239 233 233 240 235 245 253 218 204 222 219 203 213 213 213 224 197 221 207 183 167 181 189 196 231 191 193 195 163 143 282 33 177 173 172 228 170 163 155 198
281 277 256 248 246 241 240 237 230 221 219 226 239 237 244 167 221 185 193 207 217 207 222 235 212 228 195 190 182 195 201 200 187 157 196 183 178 233 246 268 178 192 203 196 182 259 215
280 277 264 250 246 242 237 234 227 212 201 188 234 252 259 218 219 197 190 217 208 215 215 222 220 197 204 187 187 200 202 213 155 170 171 169 217 228 323 345 324 211 218 190 147 90 226
284 286 275 290 259 241 236 232 224 209 203 196 241 248 209 219 261 170 196 214 210 213 223 228 219 237 170 198 195 207 199 252 177 186 164 155 160 180 213 193 158 185 202 145 157 144 239
282 281 272 286 267 232 227 224 219 205 199 195 216 233 234 196 253 169 197 196 210 206 213 211 238 239 209 191 155 177 144 144 35 134 108 151 207 180 205 173 240 236 226 195 195 184 216
285 283 276 282 295 236 227 221 213 203 197 210 218 209 227 233 227 182 191 208 206 205 192 218 216 224 212 200 184 170 133 172 178 181 122 71 208 192 212 148 248 271 271 272 243 269 274
282 281 276 273 274 260 232 222 212 203 194 207 221 256 245 233 224 188 193 198 210 196 219 216 206 189 207 212 174 163 141 128 153 144 138 135 133 103 259 109 16 274 222 234 255 205 230
278 275 273 270 266 265 247 227 212 205 199 210 210 184 231 241 211 198 194 202 202 202 209 217 213 213 220 115 90 43 43 119 135 142 127 126 110 94 174 58 249 225 193 209 204 207 229
272 269 267 267 264 258 257 249 224 209 202 212 204 225 216 229 211 205 201 200 201 191 203 199 204 217 174 81 75 61 339 183 206 174 158 133 119 104 160 200 290 278 284 198 162 255 266
272 269 268 266 266 267 257 268 227 205 206 208 212 216 247 216 233 204 197 194 186 191 184 218 249 219 174 98 98 170 196 167 205 221 171 135 125 149 135 219 251 289 221 243 160 261 85
267 267 266 265 264 258 269 227 211 210 203 206 216 209 220 242 274 199 189 193 181 194 201 125 180 144 133 136 197 199 212 178 212 182 139 164 123 213 208 231 264 198 179 125 220 264 105
266 267 268 267 267 280 225 241 233 225 215 204 214 208 205 227 302 61 85 175 185 192 187 197 140 295 153 179 178 192 178 213 208 193 195 179 169 207 186 211 260 134 117 202 192 115 136
264 263 264 271 281 221 253 258 243 228 212 198 213 205 181 214 165 83 92 35 12 199 190 29 179 162 169 133 189 133 141 120 143 229 139 220 200 197 183 214 98 21 117 104 70 129 113